2015-06-16, 07:30:04,VALID,917.177,VALID,0,VALID,97.1604,VALID,73.1674,VALID,19.0023,VALID,18,VALID,0,
2015-06-16, 07:31:04,VALID,917.219,VALID,0,VALID,97.1604,VALID,73.5972,VALID,19.0413,VALID,18,VALID,0,
2015-06-16, 07:32:04,VALID,917.207,VALID,0,VALID,97.0994,VALID,74.6716,VALID,19.0998,VALID,18,VALID,0,
2015-06-16, 07:33:04,VALID,917.188,VALID,0,VALID,97.0461,VALID,76.3907,VALID,19.1388,VALID,18,VALID,0,
2015-06-16, 07:34:04,VALID,917.233,VALID,0,VALID,96.9012,VALID,78.6469,VALID,19.1973,VALID,18,VALID,0,
2015-06-16, 07:35:04,VALID,917.263,VALID,0,VALID,96.7107,VALID,81.2255,VALID,19.2153,VALID,18,VALID,0,
2015-06-16, 07:36:04,VALID,917.245,VALID,0,VALID,96.5124,VALID,83.5892,VALID,19.2543,VALID,18,VALID,0,
2015-06-16, 07:37:04,VALID,917.269,VALID,0,VALID,96.2914,VALID,85.4157,VALID,19.3128,VALID,18,VALID,0,
2015-06-16, 07:38:04,VALID,917.26,VALID,0,VALID,96.2075,VALID,86.4901,VALID,19.3923,VALID,18,VALID,0,
2015-06-16, 07:39:04,VALID,917.271,VALID,0,VALID,96.1618,VALID,86.9199,VALID,19.4298,VALID,18,VALID,0,
2015-06-16, 07:40:04,VALID,917.296,VALID,0,VALID,95.9864,VALID,86.4901,VALID,19.5078,VALID,18,VALID,0,
2015-06-16, 07:41:04,VALID,917.31,VALID,0,VALID,95.6662,VALID,85.4157,VALID,19.5663,VALID,18,VALID,0,
2015-06-16, 07:42:04,VALID,917.312,VALID,0,VALID,95.3766,VALID,84.4487,VALID,19.6458,VALID,18,VALID,0,
2015-06-16, 07:43:04,VALID,917.323,VALID,0,VALID,95.064,VALID,83.6967,VALID,19.7028,VALID,18,VALID,0,
2015-06-16, 07:44:04,VALID,917.325,VALID,0,VALID,94.7438,VALID,83.4818,VALID,19.7613,VALID,18,VALID,0,
2015-06-16, 07:45:04,VALID,917.349,VALID,0,VALID,94.2254,VALID,83.2669,VALID,19.8213,VALID,18,VALID,0,
2015-06-16, 07:46:04,VALID,917.344,VALID,0,VALID,93.3716,VALID,82.7297,VALID,19.8588,VALID,18,VALID,0,
2015-06-16, 07:47:04,VALID,917.339,VALID,0,VALID,92.3424,VALID,82.1925,VALID,19.8978,VALID,18,VALID,0,
2015-06-16, 07:48:04,VALID,917.37,VALID,0,VALID,91.603,VALID,81.8702,VALID,19.9563,VALID,18,VALID,0,
2015-06-16, 07:49:04,VALID,917.354,VALID,0,VALID,93.0057,VALID,82.2999,VALID,20.0538,VALID,18,VALID,0,
2015-06-16, 07:50:04,VALID,917.362,VALID,0,VALID,91.6487,VALID,83.4818,VALID,20.0733,VALID,18,VALID,0,
2015-06-16, 07:51:04,VALID,917.369,VALID,0,VALID,94.1263,VALID,85.8455,VALID,20.1513,VALID,18,VALID,0,
2015-06-16, 07:52:04,VALID,917.377,VALID,0,VALID,93.1963,VALID,88.9613,VALID,20.1513,VALID,18,VALID,0,
2015-06-16, 07:53:04,VALID,917.372,VALID,0,VALID,91.0693,VALID,92.1845,VALID,20.1903,VALID,18,VALID,0,
2015-06-16, 07:54:04,VALID,917.394,VALID,0,VALID,89.4303,VALID,95.9449,VALID,20.2699,VALID,18,VALID,0,
2015-06-16, 07:55:04,VALID,917.4,VALID,0,VALID,89.2626,VALID,99.8128,VALID,20.2879,VALID,18,VALID,0,
2015-06-16, 07:56:04,VALID,917.42,VALID,0,VALID,90.6653,VALID,102.821,VALID,20.3464,VALID,18,VALID,0,
2015-06-16, 07:57:04,VALID,917.44,VALID,0,VALID,92.251,VALID,104.863,VALID,20.4244,VALID,18,VALID,0,
2015-06-16, 07:58:04,VALID,917.476,VALID,0,VALID,92.1442,VALID,106.367,VALID,20.4439,VALID,18,VALID,0,
2015-06-16, 07:59:04,VALID,917.5,VALID,0,VALID,92.2662,VALID,107.441,VALID,20.5219,VALID,18,VALID,0,
2015-06-16, 08:00:04,VALID,917.528,VALID,0,VALID,91.7173,VALID,108.623,VALID,20.582,VALID,18,VALID,0,
2015-06-16, 08:01:04,VALID,917.55,VALID,0,VALID,91.6182,VALID,109.912,VALID,20.621,VALID,18,VALID,0,
2015-06-16, 08:02:04,VALID,917.54,VALID,0,VALID,89.1177,VALID,111.631,VALID,20.6405,VALID,18,VALID,0,
2015-06-16, 08:03:04,VALID,917.524,VALID,0,VALID,88.4774,VALID,113.78,VALID,20.6585,VALID,18,VALID,0,
2015-06-16, 08:04:04,VALID,917.551,VALID,0,VALID,89.0949,VALID,116.144,VALID,20.7185,VALID,18,VALID,0,
2015-06-16, 08:05:04,VALID,917.55,VALID,0,VALID,89.6819,VALID,117.756,VALID,20.7365,VALID,18,VALID,0,
2015-06-16, 08:06:04,VALID,917.547,VALID,0,VALID,90.5814,VALID,118.615,VALID,20.795,VALID,18,VALID,0,
2015-06-16, 08:07:04,VALID,917.535,VALID,0,VALID,89.72,VALID,118.83,VALID,20.8746,VALID,18,VALID,0,
2015-06-16, 08:08:04,VALID,917.546,VALID,0,VALID,89.0339,VALID,119.152,VALID,20.9331,VALID,18,VALID,0,
2015-06-16, 08:09:04,VALID,917.532,VALID,0,VALID,89.8496,VALID,119.797,VALID,21.0307,VALID,18,VALID,0,
2015-06-16, 08:10:04,VALID,917.549,VALID,0,VALID,90.2079,VALID,120.871,VALID,21.0096,VALID,18,VALID,0,
2015-06-16, 08:11:04,VALID,917.537,VALID,0,VALID,91.0693,VALID,123.02,VALID,21.0502,VALID,18,VALID,0,
2015-06-16, 08:12:04,VALID,917.555,VALID,0,VALID,86.5944,VALID,126.351,VALID,21.0096,VALID,18,VALID,0,
2015-06-16, 08:13:04,VALID,917.554,VALID,0,VALID,87.5016,VALID,130.434,VALID,21.1282,VALID,18,VALID,0,
2015-06-16, 08:14:04,VALID,917.58,VALID,0,VALID,87.067,VALID,134.516,VALID,21.1461,VALID,18,VALID,0,
2015-06-16, 08:15:04,VALID,917.61,VALID,0,VALID,87.3491,VALID,138.062,VALID,21.2258,VALID,18,VALID,0,
2015-06-16, 08:16:04,VALID,917.592,VALID,0,VALID,87.7684,VALID,140.855,VALID,21.2632,VALID,18,VALID,0,
2015-06-16, 08:17:04,VALID,917.625,VALID,0,VALID,87.4253,VALID,142.36,VALID,21.3022,VALID,18,VALID,0,
2015-06-16, 08:18:04,VALID,917.619,VALID,0,VALID,86.5258,VALID,143.326,VALID,21.3217,VALID,18,VALID,0,
2015-06-16, 08:19:04,VALID,917.616,VALID,0,VALID,85.8854,VALID,144.401,VALID,21.3981,VALID,18,VALID,0,
2015-06-16, 08:20:04,VALID,917.612,VALID,0,VALID,86.3809,VALID,146.442,VALID,21.3786,VALID,18,VALID,0,
2015-06-16, 08:21:04,VALID,917.623,VALID,0,VALID,86.1446,VALID,149.666,VALID,21.2616,VALID,18,VALID,0,
2015-06-16, 08:22:04,VALID,917.648,VALID,0,VALID,86.9908,VALID,154.178,VALID,21.2031,VALID,18,VALID,0,
2015-06-16, 08:23:04,VALID,917.666,VALID,0,VALID,87.2271,VALID,159.765,VALID,21.125,VALID,18,VALID,0,
2015-06-16, 08:24:04,VALID,917.698,VALID,0,VALID,87.2729,VALID,165.997,VALID,21.0275,VALID,18,VALID,0,
2015-06-16, 08:25:04,VALID,917.7,VALID,0,VALID,87.7379,VALID,171.046,VALID,20.969,VALID,18,VALID,0,
2015-06-16, 08:26:04,VALID,917.741,VALID,0,VALID,88.5536,VALID,173.195,VALID,20.9885,VALID,18,VALID,0,
2015-06-16, 08:27:04,VALID,917.744,VALID,0,VALID,87.9209,VALID,173.625,VALID,21.008,VALID,18,VALID,0,
2015-06-16, 08:28:04,VALID,917.781,VALID,0,VALID,87.8218,VALID,173.84,VALID,21.0275,VALID,18,VALID,0,
2015-06-16, 08:29:04,VALID,917.806,VALID,0,VALID,87.9285,VALID,173.625,VALID,21.0454,VALID,18,VALID,0,
2015-06-16, 08:30:04,VALID,917.815,VALID,0,VALID,87.0213,VALID,172.658,VALID,21.0681,VALID,18,VALID,0,
2015-06-16, 08:31:04,VALID,917.817,VALID,0,VALID,86.3047,VALID,171.154,VALID,21.0876,VALID,336,VALID,0,
2015-06-16, 08:32:04,VALID,917.804,VALID,0,VALID,85.6033,VALID,168.468,VALID,21.0876,VALID,336,VALID,0,
2015-06-16, 08:33:04,VALID,917.797,VALID,0,VALID,85.6796,VALID,165.674,VALID,21.1461,VALID,336,VALID,0,
2015-06-16, 08:34:04,VALID,917.823,VALID,0,VALID,86.5258,VALID,163.74,VALID,21.2047,VALID,336,VALID,0,
2015-06-16, 08:35:04,VALID,917.849,VALID,0,VALID,86.1751,VALID,162.773,VALID,21.2437,INVALID,360,VALID,0,
2015-06-16, 08:36:04,VALID,917.823,VALID,0,VALID,86.5563,VALID,163.096,VALID,21.2421,VALID,336,VALID,0,
2015-06-16, 08:37:04,VALID,917.852,VALID,0,VALID,86.4572,VALID,164.278,VALID,21.2811,VALID,336,VALID,0,
2015-06-16, 08:38:04,VALID,917.843,VALID,0,VALID,85.3441,VALID,165.137,VALID,21.3412,VALID,336,VALID,0,
2015-06-16, 08:39:04,VALID,917.822,VALID,0,VALID,85.9388,VALID,165.997,VALID,21.3396,VALID,336,VALID,0,
2015-06-16, 08:40:04,VALID,917.851,VALID,0,VALID,84.719,VALID,165.997,VALID,21.3396,VALID,336,VALID,0,
2015-06-16, 08:41:04,VALID,917.853,VALID,0,VALID,85.1459,VALID,165.352,VALID,21.3396,INVALID,360,VALID,0,
2015-06-16, 08:42:04,VALID,917.89,VALID,0,VALID,85.1841,VALID,163.848,VALID,21.3803,VALID,336,VALID,0,
2015-06-16, 08:43:04,VALID,917.884,VALID,0,VALID,85.5119,VALID,161.914,VALID,21.4177,VALID,336,VALID,0,
2015-06-16, 08:44:04,VALID,917.887,VALID,0,VALID,85.5424,VALID,159.443,VALID,21.4567,VALID,336,VALID,0,
2015-06-16, 08:45:04,VALID,917.879,VALID,0,VALID,85.9159,VALID,156.757,VALID,21.4177,VALID,336,VALID,0,
2015-06-16, 08:46:04,VALID,917.886,VALID,0,VALID,86.2971,VALID,154.285,VALID,21.4193,VALID,336,VALID,0,
2015-06-16, 08:47:04,VALID,917.883,VALID,0,VALID,85.2603,VALID,151.814,VALID,21.4388,VALID,336,VALID,0,
2015-06-16, 08:48:04,VALID,917.9,VALID,0,VALID,85.2603,VALID,149.988,VALID,21.3981,VALID,336,VALID,0,
2015-06-16, 08:49:04,VALID,917.886,VALID,0,VALID,86.0303,VALID,149.128,VALID,21.4372,VALID,336,VALID,0,
2015-06-16, 08:50:04,VALID,917.903,VALID,0,VALID,85.3975,VALID,149.128,VALID,21.3981,VALID,336,VALID,0,
2015-06-16, 08:51:04,VALID,917.851,VALID,0,VALID,86.1446,VALID,150.632,VALID,21.3786,VALID,336,VALID,0,
2015-06-16, 08:52:04,VALID,917.886,VALID,0,VALID,86.8002,VALID,153.856,VALID,21.3981,VALID,336,VALID,0,
2015-06-16, 08:53:04,VALID,917.874,VALID,0,VALID,86.5105,VALID,157.186,VALID,21.4177,VALID,336,VALID,0,
2015-06-16, 08:54:04,VALID,917.909,VALID,0,VALID,86.4724,VALID,159.443,VALID,21.4762,VALID,336,VALID,0,
2015-06-16, 08:55:04,VALID,917.886,VALID,0,VALID,86.3428,VALID,160.732,VALID,21.5152,VALID,336,VALID,0,
2015-06-16, 08:56:04,VALID,917.908,VALID,0,VALID,85.6567,VALID,161.591,VALID,21.5347,VALID,336,VALID,0,
2015-06-16, 08:57:04,VALID,917.916,VALID,0,VALID,85.7787,VALID,165.782,VALID,21.5152,VALID,336,VALID,0,
2015-06-16, 08:58:04,VALID,917.906,VALID,0,VALID,86.4419,VALID,174.377,VALID,21.5542,VALID,336,VALID,0,
2015-06-16, 08:59:04,VALID,917.914,VALID,0,VALID,86.4038,VALID,180.931,VALID,21.5363,VALID,336,VALID,0,
2015-06-16, 09:00:04,VALID,917.913,VALID,0,VALID,86.198,VALID,182.22,VALID,21.5152,VALID,336,VALID,0,
2015-06-16, 09:01:04,VALID,917.904,VALID,0,VALID,86.6935,VALID,181.79,VALID,21.4762,VALID,336,VALID,0,
2015-06-16, 09:02:04,VALID,917.889,VALID,0,VALID,86.5563,VALID,184.262,VALID,21.4957,VALID,336,VALID,0,
2015-06-16, 09:03:04,VALID,917.936,VALID,0,VALID,86.8307,VALID,191.89,VALID,21.4372,VALID,336,VALID,0,
2015-06-16, 09:04:04,VALID,917.915,VALID,0,VALID,87.7913,VALID,210.262,VALID,21.4177,VALID,336,VALID,0,
2015-06-16, 09:05:04,VALID,917.924,VALID,0,VALID,88.02,VALID,279.025,VALID,21.3981,VALID,336,VALID,0,
2015-06-16, 09:06:04,VALID,917.934,VALID,0,VALID,87.4787,VALID,316.199,VALID,21.3786,VALID,336,VALID,0,
2015-06-16, 09:07:04,VALID,917.931,VALID,0,VALID,88.0047,VALID,377.441,VALID,21.4372,VALID,336,VALID,0,
2015-06-16, 09:08:04,VALID,917.944,VALID,0,VALID,87.5473,VALID,312.224,VALID,21.4762,VALID,336,VALID,0,
2015-06-16, 09:09:04,VALID,917.925,VALID,0,VALID,88.4316,VALID,342.415,VALID,21.5721,VALID,336,VALID,0,
2015-06-16, 09:10:04,VALID,917.908,VALID,0,VALID,87.1966,VALID,380.879,VALID,21.6696,VALID,337,VALID,0,
2015-06-16, 09:11:04,VALID,917.895,VALID,0,VALID,88.546,VALID,344.779,VALID,21.8452,VALID,353,VALID,0,
2015-06-16, 09:12:04,VALID,917.909,VALID,0,VALID,87.7989,VALID,317.596,VALID,22.0403,VALID,11,VALID,0,
2015-06-16, 09:13:04,VALID,917.893,VALID,0,VALID,85.8778,VALID,325.332,VALID,22.1964,VALID,20,VALID,0,
2015-06-16, 09:14:04,VALID,917.893,VALID,0,VALID,85.6338,VALID,369.598,VALID,22.3916,VALID,20,VALID,0,
2015-06-16, 09:15:04,VALID,917.923,VALID,0,VALID,84.9096,VALID,406.88,VALID,22.5494,VALID,5,VALID,0,
2015-06-16, 09:16:04,VALID,917.897,VALID,0,VALID,82.5997,VALID,418.913,VALID,22.7055,VALID,354,VALID,0.200391,
2015-06-16, 09:17:04,VALID,917.905,VALID,0,VALID,80.4652,VALID,449.641,VALID,22.8812,VALID,345,VALID,0.567969,
2015-06-16, 09:18:04,VALID,917.905,VALID,0,VALID,79.4665,VALID,361.432,VALID,22.8421,VALID,358,VALID,0.445703,
2015-06-16, 09:19:04,VALID,917.915,VALID,0,VALID,80.7472,VALID,304.918,VALID,22.8421,VALID,8,VALID,0.165625,
2015-06-16, 09:20:04,VALID,917.892,VALID,0,VALID,77.3472,VALID,306.315,VALID,22.7055,VALID,2,VALID,0.676172,
2015-06-16, 09:21:04,VALID,917.924,VALID,0,VALID,79.8172,VALID,274.727,VALID,22.6062,VALID,16,VALID,0,
2015-06-16, 09:22:04,VALID,917.884,VALID,0,VALID,81.5858,VALID,270,VALID,22.6274,VALID,18,VALID,0,
2015-06-16, 09:23:04,VALID,917.931,VALID,0,VALID,80.023,VALID,274.512,VALID,22.6665,VALID,10,VALID,0,
2015-06-16, 09:24:04,VALID,917.944,VALID,0,VALID,79.9239,VALID,342.093,VALID,22.6257,VALID,6,VALID,0,
2015-06-16, 09:25:04,VALID,917.919,VALID,0,VALID,82.0966,VALID,426.219,VALID,22.6647,VALID,360,VALID,0,
2015-06-16, 09:26:04,VALID,917.914,VALID,0,VALID,80.5566,VALID,567.719,VALID,22.8014,VALID,353,VALID,0,
2015-06-16, 09:27:04,VALID,917.897,VALID,0,VALID,81.2885,VALID,526.569,VALID,22.9592,VALID,9,VALID,0,
2015-06-16, 09:29:04,VALID,917.87,VALID,0,VALID,78.5288,VALID,418.376,VALID,23.504,VALID,19,VALID,0,
2015-06-16, 09:30:04,VALID,917.86,VALID,0,VALID,77.7131,VALID,371.639,VALID,23.6406,VALID,18,VALID,0.129688,
2015-06-16, 09:31:04,VALID,917.911,VALID,0,VALID,76.4476,VALID,377.333,VALID,23.6211,VALID,328,VALID,0,
2015-06-16, 09:32:04,VALID,917.878,VALID,0,VALID,78.7575,VALID,456.41,VALID,23.6388,VALID,1,VALID,0,
2015-06-16, 09:33:04,VALID,917.889,VALID,0,VALID,80.4575,VALID,481.229,VALID,23.7578,VALID,2,VALID,0,
2015-06-16, 09:34:04,VALID,917.889,VALID,0,VALID,76.2265,VALID,475.642,VALID,23.6602,VALID,351,VALID,0.408594,
2015-06-16, 09:35:04,VALID,917.907,VALID,0,VALID,76.9965,VALID,577.496,VALID,23.6992,VALID,1,VALID,0.186328,
2015-06-16, 09:36:04,VALID,917.899,VALID,0,VALID,77.2404,VALID,606.613,VALID,23.7382,VALID,330,VALID,0,
2015-06-16, 09:37:04,VALID,917.908,VALID,0,VALID,75.3956,VALID,609.836,VALID,23.8749,VALID,359,VALID,0,
2015-06-16, 09:38:04,VALID,917.903,VALID,0,VALID,76.0359,VALID,564.496,VALID,23.7755,VALID,16,VALID,1.28047,
2015-06-16, 09:39:04,VALID,917.913,VALID,0,VALID,76.3028,VALID,526.247,VALID,23.7382,VALID,23,VALID,0.299609,
2015-06-16, 09:40:04,VALID,917.923,VALID,0,VALID,75.7386,VALID,589.1,VALID,23.756,VALID,31,VALID,0.0417969,
2015-06-16, 09:41:04,VALID,917.935,VALID,0,VALID,78.2239,VALID,566.645,VALID,23.953,VALID,11,VALID,0.346875,
2015-06-16, 09:42:04,VALID,917.946,VALID,0,VALID,76.5391,VALID,579.645,VALID,24.0488,VALID,9,VALID,0.391797,
2015-06-16, 09:43:04,VALID,917.945,VALID,0,VALID,75.5785,VALID,553,VALID,23.9902,VALID,298,VALID,0.00195313,
2015-06-16, 09:44:04,VALID,917.98,VALID,0,VALID,75.1059,VALID,607.687,VALID,23.9512,VALID,358,VALID,1.01875,
2015-06-16, 09:45:04,VALID,918.003,VALID,0,VALID,72.4758,VALID,419.558,VALID,23.9707,VALID,18,VALID,0,
2015-06-16, 09:46:04,VALID,917.99,VALID,0,VALID,75.0144,VALID,572.339,VALID,24.0488,VALID,328,VALID,0,
2015-06-16, 09:47:04,VALID,918.018,VALID,0,VALID,74.4274,VALID,594.364,VALID,23.953,VALID,302,VALID,0.0078125,
2015-06-16, 09:48:04,VALID,917.963,VALID,0,VALID,74.9611,VALID,597.803,VALID,23.7968,VALID,334,VALID,0,
2015-06-16, 09:49:04,VALID,917.984,VALID,0,VALID,75.5176,VALID,575.992,VALID,23.7773,VALID,297,VALID,0.00585938,
2015-06-16, 09:50:04,VALID,917.987,VALID,0,VALID,75.9368,VALID,598.125,VALID,23.8145,VALID,353,VALID,0,
2015-06-16, 09:51:04,VALID,917.976,VALID,0,VALID,75.4185,VALID,615.208,VALID,23.9707,VALID,346,VALID,0,
2015-06-16, 09:52:04,VALID,917.972,VALID,0,VALID,76.6839,VALID,608.869,VALID,24.2068,VALID,354,VALID,0,
2015-06-16, 09:53:04,VALID,917.958,VALID,0,VALID,74.6256,VALID,576.637,VALID,24.4997,VALID,327,VALID,0,
2015-06-16, 09:54:04,VALID,917.973,VALID,0,VALID,72.5673,VALID,619.613,VALID,24.4978,VALID,283,VALID,0,
2015-06-16, 09:55:04,VALID,917.952,VALID,0,VALID,71.3171,VALID,610.481,VALID,24.3825,VALID,269,VALID,0,
2015-06-16, 09:56:04,VALID,917.969,VALID,0,VALID,72.2852,VALID,601.026,VALID,24.363,VALID,324,VALID,0.0210938,
2015-06-16, 09:57:04,VALID,917.966,VALID,0,VALID,74.3359,VALID,532.586,VALID,24.2635,INVALID,360,VALID,0,
2015-06-16, 09:58:04,VALID,917.981,VALID,0,VALID,75.0983,VALID,510.345,VALID,24.4197,VALID,15,VALID,0,
2015-06-16, 09:59:04,VALID,917.97,VALID,0,VALID,71.3018,VALID,588.348,VALID,24.4978,VALID,16,VALID,0,
2015-06-16, 10:00:04,VALID,917.961,VALID,0,VALID,72.3996,VALID,631.861,VALID,24.4178,VALID,309,VALID,0,
2015-06-16, 10:01:04,VALID,917.977,VALID,0,VALID,73.7642,VALID,585.877,VALID,24.4392,VALID,289,VALID,0,
2015-06-16, 10:02:04,VALID,917.975,VALID,0,VALID,71.6906,VALID,517.974,VALID,24.3416,VALID,291,VALID,0,
2015-06-16, 10:03:04,VALID,917.958,VALID,0,VALID,75.5862,VALID,396.458,VALID,24.1659,VALID,4,VALID,0,
2015-06-16, 10:04:04,VALID,917.935,VALID,0,VALID,72.857,VALID,338.869,VALID,24.2031,VALID,347,VALID,0,
2015-06-16, 10:05:04,VALID,917.927,VALID,0,VALID,73.2991,VALID,424.93,VALID,24.3026,VALID,2,VALID,0,
2015-06-16, 10:06:04,VALID,917.951,VALID,0,VALID,72.7121,VALID,567.397,VALID,24.4002,VALID,356,VALID,0,
2015-06-16, 10:07:04,VALID,917.944,VALID,0,VALID,70.2117,VALID,641.101,VALID,24.535,VALID,341,VALID,0.0289063,
2015-06-16, 10:08:04,VALID,917.96,VALID,0,VALID,72.0946,VALID,636.804,VALID,24.7126,VALID,21,VALID,0,
2015-06-16, 10:09:04,VALID,917.978,VALID,0,VALID,70.6538,VALID,521.519,VALID,25.0055,VALID,58,VALID,1.66953,
2015-06-16, 10:10:04,VALID,917.954,VALID,0,VALID,71.035,VALID,517.651,VALID,25.1226,VALID,22,VALID,0.198047,
2015-06-16, 10:11:04,VALID,917.97,VALID,0,VALID,72.2319,VALID,642.928,VALID,25.2379,VALID,21,VALID,0.186328,
2015-06-16, 10:12:04,VALID,917.996,VALID,0,VALID,74.2826,VALID,657.647,VALID,25.4351,VALID,16,VALID,0,
2015-06-16, 10:13:04,VALID,918.002,VALID,0,VALID,71.7211,VALID,669.251,VALID,25.5503,VALID,3,VALID,0.0222656,
2015-06-16, 10:14:04,VALID,917.996,VALID,0,VALID,67.0098,VALID,652.383,VALID,25.4761,VALID,286,VALID,1.0082,
2015-06-16, 10:15:04,VALID,917.972,VALID,0,VALID,69.9906,VALID,631.432,VALID,25.3765,VALID,353,VALID,0.0121094,
2015-06-16, 10:16:04,VALID,917.98,VALID,0,VALID,67.4291,VALID,599.522,VALID,25.2984,VALID,6,VALID,1.90781,
2015-06-16, 10:17:04,VALID,917.969,VALID,0,VALID,69.4265,VALID,595.546,VALID,25.2203,VALID,16,VALID,0,
2015-06-16, 10:18:04,VALID,917.983,VALID,0,VALID,69.6094,VALID,562.132,VALID,25.2984,VALID,349,VALID,0,
2015-06-16, 10:19:04,VALID,917.962,VALID,0,VALID,68.2753,VALID,627.349,VALID,25.2574,VALID,310,VALID,0,
2015-06-16, 10:20:04,VALID,917.982,VALID,0,VALID,69.7161,VALID,673.763,VALID,25.2788,VALID,315,VALID,0,
2015-06-16, 10:21:04,VALID,917.983,VALID,0,VALID,68.2753,VALID,672.797,VALID,25.1988,VALID,311,VALID,0,
2015-06-16, 10:22:04,VALID,917.99,VALID,0,VALID,69.6247,VALID,690.202,VALID,25.1598,VALID,313,VALID,0,
2015-06-16, 10:23:04,VALID,917.986,VALID,0,VALID,67.6578,VALID,693.318,VALID,25.2965,VALID,356,VALID,1.29297,
2015-06-16, 10:24:04,VALID,917.976,VALID,0,VALID,67.0479,VALID,691.276,VALID,25.3941,VALID,15,VALID,0,
2015-06-16, 10:25:04,VALID,917.969,VALID,0,VALID,66.2551,VALID,696.326,VALID,25.6089,VALID,13,VALID,0,
2015-06-16, 10:26:04,VALID,917.985,VALID,0,VALID,67.9475,VALID,695.681,VALID,25.8433,VALID,14,VALID,0,
2015-06-16, 10:27:04,VALID,917.962,VALID,0,VALID,66.3008,VALID,702.773,VALID,26.019,VALID,345,VALID,0,
2015-06-16, 10:28:04,VALID,917.975,VALID,0,VALID,67.0174,VALID,690.202,VALID,25.9624,VALID,19,VALID,0,
2015-06-16, 10:29:04,VALID,917.936,VALID,0,VALID,67.0784,VALID,662.16,VALID,25.9624,VALID,17,VALID,0,
2015-06-16, 10:30:04,VALID,917.934,VALID,0,VALID,68.4278,VALID,666.35,VALID,26.0015,VALID,329,VALID,0,
2015-06-16, 10:31:04,VALID,917.895,VALID,0,VALID,66.3161,VALID,652.705,VALID,26.021,VALID,323,VALID,0,
2015-06-16, 10:32:04,VALID,917.95,VALID,0,VALID,67.8408,VALID,664.201,VALID,26.1382,VALID,329,VALID,0,
2015-06-16, 10:33:04,VALID,917.903,VALID,0,VALID,63.7318,VALID,673.011,VALID,26.0386,VALID,279,VALID,0.151172,
2015-06-16, 10:34:04,VALID,917.892,VALID,0,VALID,65.3174,VALID,686.979,VALID,25.7456,VALID,243,VALID,0.000390625,
2015-06-16, 10:35:04,VALID,917.889,VALID,0,VALID,65.6224,VALID,686.227,VALID,25.648,VALID,279,VALID,0,
2015-06-16, 10:36:04,VALID,917.895,VALID,0,VALID,64.6999,VALID,681.392,VALID,25.5308,VALID,290,VALID,0.747656,
2015-06-16, 10:37:04,VALID,917.904,VALID,0,VALID,68.1152,VALID,714.699,VALID,25.2769,VALID,290,VALID,0,
2015-06-16, 10:38:04,VALID,917.908,VALID,0,VALID,69.7238,VALID,703.202,VALID,25.3179,VALID,6,VALID,0.633984,
2015-06-16, 10:39:04,VALID,917.875,VALID,0,VALID,68.4354,VALID,694.5,VALID,25.316,VALID,9,VALID,0.832422,
2015-06-16, 10:40:04,VALID,917.862,VALID,0,VALID,71.9117,VALID,680.747,VALID,25.355,VALID,2,VALID,0.00820312,
2015-06-16, 10:41:04,VALID,917.852,VALID,0,VALID,70.8596,VALID,668.069,VALID,25.6089,VALID,12,VALID,0,
2015-06-16, 10:42:04,VALID,917.841,VALID,0,VALID,70.8825,VALID,669.251,VALID,25.9214,VALID,13,VALID,0.777734,
2015-06-16, 10:43:04,VALID,917.827,VALID,0,VALID,66.9031,VALID,692.888,VALID,26.2339,VALID,17,VALID,0,
2015-06-16, 10:44:04,VALID,917.808,VALID,0,VALID,64.9134,VALID,701.054,VALID,26.3902,VALID,355,VALID,0,
2015-06-16, 10:45:04,VALID,917.812,VALID,0,VALID,66.8726,VALID,696.326,VALID,26.5074,VALID,342,VALID,0,
2015-06-16, 10:46:04,VALID,917.789,VALID,0,VALID,63.3506,VALID,681.392,VALID,26.6832,VALID,24,VALID,1.32773,
2015-06-16, 10:47:04,VALID,917.79,VALID,0,VALID,61.7649,VALID,681.607,VALID,26.7984,VALID,29,VALID,0,
2015-06-16, 10:48:04,VALID,917.788,VALID,0,VALID,64.3645,VALID,682.036,VALID,26.8765,VALID,339,VALID,0,
2015-06-16, 10:49:04,VALID,917.789,VALID,0,VALID,61.5286,VALID,683.326,VALID,26.6657,VALID,265,VALID,0,
2015-06-16, 10:50:04,VALID,917.826,VALID,0,VALID,63.9376,VALID,677.739,VALID,26.4878,VALID,295,VALID,0,
2015-06-16, 10:51:04,VALID,917.834,VALID,0,VALID,64.8448,VALID,683.433,VALID,26.605,VALID,295,VALID,0,
2015-06-16, 10:52:04,VALID,917.793,VALID,0,VALID,62.0546,VALID,684.4,VALID,26.6246,VALID,254,VALID,0,
2015-06-16, 10:53:04,VALID,917.768,VALID,0,VALID,64.921,VALID,670.97,VALID,26.605,VALID,276,VALID,0,
2015-06-16, 10:54:04,VALID,917.771,VALID,0,VALID,60.6748,VALID,659.796,VALID,26.4488,VALID,42,VALID,0.0195313,
2015-06-16, 10:55:04,VALID,917.741,VALID,0,VALID,61.9403,VALID,674.086,VALID,26.1167,VALID,59,VALID,0,
2015-06-16, 10:56:04,VALID,917.763,VALID,0,VALID,64.4102,VALID,654.102,VALID,26.019,VALID,74,VALID,0.0121094,
2015-06-16, 10:57:04,VALID,917.733,VALID,0,VALID,64.9515,VALID,665.276,VALID,25.9604,VALID,74,VALID,0,
2015-06-16, 10:58:04,VALID,917.755,VALID,0,VALID,67.2157,VALID,707.5,VALID,26.0581,VALID,74,VALID,0,
2015-06-16, 10:59:04,VALID,917.725,VALID,0,VALID,64.8753,VALID,717.599,VALID,26.2144,VALID,358,VALID,0,
2015-06-16, 11:00:04,VALID,917.721,VALID,0,VALID,64.273,VALID,688.268,VALID,26.273,VALID,358,VALID,0,
2015-06-16, 11:01:04,VALID,917.695,VALID,0,VALID,62.5882,VALID,696.219,VALID,26.2339,VALID,360,VALID,0,
2015-06-16, 11:02:04,VALID,917.68,VALID,0,VALID,64.2806,VALID,724.476,VALID,26.2925,VALID,5,VALID,0,
2015-06-16, 11:03:04,VALID,917.65,VALID,0,VALID,63.6936,VALID,718.996,VALID,26.3706,VALID,358,VALID,0.832812,
2015-06-16, 11:04:04,VALID,917.679,VALID,0,VALID,63.16,VALID,739.517,VALID,26.1948,VALID,350,VALID,0.0609375,
2015-06-16, 11:05:04,VALID,917.644,VALID,0,VALID,62.4205,VALID,744.46,VALID,26.021,VALID,15,VALID,1.40469,
2015-06-16, 11:06:04,VALID,917.625,VALID,0,VALID,65.1954,VALID,743.17,VALID,25.9429,VALID,29,VALID,1.37344,
2015-06-16, 11:07:04,VALID,917.601,VALID,0,VALID,64.5932,VALID,742.848,VALID,26.0581,VALID,18,VALID,0,
2015-06-16, 11:08:04,VALID,917.614,VALID,0,VALID,65.1802,VALID,740.484,VALID,26.2164,VALID,23,VALID,0,
2015-06-16, 11:09:04,VALID,917.607,VALID,0,VALID,61.6277,VALID,720.393,VALID,26.3511,VALID,283,VALID,0,
2015-06-16, 11:10:04,VALID,917.548,VALID,0,VALID,62.8169,VALID,546.231,VALID,26.1167,VALID,253,VALID,0,
2015-06-16, 11:11:04,VALID,917.543,VALID,0,VALID,64.9896,VALID,671.292,VALID,26.1187,VALID,250,VALID,0,
2015-06-16, 11:12:04,VALID,917.511,VALID,0,VALID,65.6452,VALID,763.047,VALID,26.1753,VALID,342,VALID,0,
2015-06-16, 11:13:04,VALID,917.515,VALID,0,VALID,66.339,VALID,481.444,VALID,26.3706,VALID,354,VALID,0,
2015-06-16, 11:14:04,VALID,917.496,VALID,0,VALID,66.3161,VALID,702.45,VALID,26.3511,VALID,24,VALID,0.0121094,
2015-06-16, 11:15:04,VALID,917.5,VALID,0,VALID,65.4928,VALID,600.059,VALID,26.4312,VALID,341,VALID,0.0289063,
2015-06-16, 11:16:04,VALID,917.473,VALID,0,VALID,64.6008,VALID,570.19,VALID,26.3902,VALID,325,VALID,0,
2015-06-16, 11:17:04,VALID,917.435,VALID,0,VALID,63.4649,VALID,713.409,VALID,26.3922,VALID,327,VALID,0,